Theta_e
296 296 296 297 296 296 296 298 299 298 299 300 303 303 302 300 300 301 301 301 301 303
293 293 294 294 295 296 295 294 295 295 295 295 296 297 298 299 297 299 299 299 299 300
290 289 290 291 290 291 291 292 292 293 293 293 293 294 295 295 296 295 298 298 297 298
288 288 288 288 287 288 288 288 288 289 288 288 289 289 290 290 292 292 292 293 294 295
286 286 285 286 286 287 286 287 287 287 286 286 287 287 287 286 287 288 289 290 292 292
286 285 285 285 286 286 285 285 285 285 285 285 286 286 286 287 286 286 287 287 288 290
285 285 285 285 285 285 285 284 284 284 284 285 285 285 286 286 286 285 286 286 286 288
286 286 285 284 284 284 284 284 284 283 284 284 284 286 286 285 285 284 284 285 286 287
286 285 284 283 283 283 283 282 282 282 283 283 286 290 291 290 285 284 284 283 284 285
285 284 283 283 282 282 281 281 281 282 282 282 282 289 290 290 285 284 283 283 283 284
284 283 282 282 281 281 281 281 281 281 282 281 283 289 289 290 284 282 282 283 283 282
283 282 281 280 280 280 280 280 280 281 281 280 281 287 288 287 281 282 281 283 283 284
282 281 280 280 279 280 280 280 281 280 280 282 279 285 287 287 282 280 281 282 283 286
281 280 280 279 279 278 278 278 277 278 277 278 280 280 287 287 283 282 282 282 281 283
Wind_Speed
6 4 4 6 6 6 5 5 5 5 5 6 5 3 4 3 4 6 5 8 8 7
5 6 4 5 4 2 3 4 6 7 7 7 7 6 5 2 3 4 5 5 7 7
5 4 4 5 5 6 5 5 6 5 5 5 5 6 6 6 5 5 3 3 5 7
5 5 5 5 5 6 6 6 6 6 6 6 7 6 5 6 7 8 8 7 8 9
3 5 5 5 6 6 6 6 6 6 6 6 6 6 6 6 8 9 10 10 9 8
4 5 5 5 6 6 6 6 6 5 6 6 6 5 4 4 6 7 9 9 9 8
3 4 4 5 6 6 6 6 6 6 6 6 6 6 6 5 5 6 8 10 10 9
3 3 4 5 5 5 5 5 5 6 6 6 6 5 7 4 3 5 8 8 9 8
2 2 4 5 6 6 6 6 6 6 6 6 6 18 18 15 5 4 6 9 10 9
2 4 5 5 6 6 6 6 6 7 7 7 6 18 19 18 5 6 6 9 10 10
3 4 5 5 5 5 4 5 5 6 6 7 8 19 20 19 6 5 6 6 8 9
2 4 4 5 6 5 4 4 4 5 7 7 8 17 17 14 4 5 6 6 7 9
3 4 5 5 5 2 3 5 5 6 6 9 6 13 17 14 3 5 5 6 6 12
4 4 5 4 2 3 4 4 5 5 6 6 7 8 17 18 8 6 7 6 6 6
Wind_Direction
20 10 357 5 16 19 21 2 346 5 12 358 338 347 353 322 358 358 352 6 349 337
19 18 3 13 13 350 356 14 6 7 8 2 352 353 332 338 333 352 350 342 342 334
23 18 13 18 17 10 5 2 6 354 349 344 345 347 355 353 345 335 298 303 348 7
357 0 15 27 15 8 7 1 4 356 353 352 350 349 6 354 356 346 337 344 353 351
7 19 20 8 1 1 358 353 349 349 350 347 345 354 10 359 349 344 342 340 339 338
13 10 358 351 350 352 352 345 348 348 348 344 340 353 348 355 344 337 331 330 331 324
347 340 332 338 352 354 347 344 341 339 335 336 331 324 340 338 340 333 334 328 328 324
313 344 359 357 344 335 336 331 327 330 331 329 325 335 330 297 314 319 328 327 321 322
342 352 341 334 335 339 338 339 344 346 341 342 343 335 336 338 329 328 331 329 326 322
5 350 340 335 338 335 333 338 340 335 334 331 325 332 332 330 331 332 333 332 326 322
9 326 320 333 338 332 329 334 330 325 318 317 317 328 330 324 319 332 322 320 315 324
317 314 325 328 317 307 314 316 301 300 309 311 310 327 333 336 346 313 307 299 309 316
295 308 307 293 298 274 304 301 313 315 311 317 323 332 337 336 311 300 287 281 276 301
300 298 286 305 303 298 310 314 322 317 318 326 340 337 340 334 327 315 319 324 317 310